• In Russia
  • List of Countries
  • For 7 days
  • Water Temperature
  • Satellite Maps
  • Weather Map
  • Weather Widgets
  • user-avatar
    Login

    Hourly Weather Brussels

    Today, 22 November, Wednesday

    Time Temperature Precipitation Wind Pressure Humidity
    00:00 +9°C° 0 mm 7 mps 754 mmHg 88%
    01:00 +9°C° 0 mm 7 mps 754 mmHg 88%
    02:00 +9°C° 0 mm 7 mps 753 mmHg 87%
    03:00 +9°C° 0 mm 7 mps 753 mmHg 86%
    04:00 +9°C° 0 mm 7 mps 753 mmHg 87%
    05:00 +9°C° 0 mm 7 mps 753 mmHg 87%
    06:00 +9°C° 0 mm 7 mps 752 mmHg 88%
    07:00 +8°C° 0 mm 7 mps 752 mmHg 86%
    08:00 +8°C° 0 mm 7 mps 752 mmHg 84%
    09:00 +8°C° 0 mm 7 mps 752 mmHg 82%
    10:00 +9°C° 0 mm 7 mps 752 mmHg 76%
    11:00 +10°C° 0 mm 7 mps 752 mmHg 70%
    12:00 +11°C° 0 mm 8 mps 751 mmHg 64%
    13:00 +11°C° 0 mm 7 mps 751 mmHg 63%
    14:00 +11°C° 0 mm 7 mps 750 mmHg 62%
    15:00 +10°C° 0 mm 7 mps 750 mmHg 61%
    16:00 +10°C° 0 mm 7 mps 749 mmHg 61%
    17:00 +10°C° 0 mm 7 mps 749 mmHg 60%
    18:00 +9°C° 0 mm 8 mps 749 mmHg 59%
    19:00 +9°C° 0 mm 8 mps 749 mmHg 59%
    20:00 +9°C° 0 mm 8 mps 748 mmHg 59%
    21:00 +10°C° 0 mm 8 mps 748 mmHg 58%
    22:00 +9°C° 0 mm 8 mps 748 mmHg 58%
    23:00 +9°C° 0 mm 8 mps 747 mmHg 59%

    Tomorrow, 23 November, Thursday

    Time Temperature Precipitation Wind Pressure Humidity
    00:00 +9°C° 0 mm 8 mps 747 mmHg 59%
    01:00 +10°C° 0 mm 9 mps 747 mmHg 60%
    02:00 +10°C° 0 mm 9 mps 746 mmHg 62%
    03:00 +9°C° 0 mm 10 mps 746 mmHg 63%
    04:00 +9°C° 0 mm 10 mps 746 mmHg 63%
    05:00 +11°C° 0 mm 11 mps 746 mmHg 63%
    06:00 +11°C° 0 mm 11 mps 745 mmHg 62%
    07:00 +12°C° 0 mm 11 mps 746 mmHg 64%
    08:00 +12°C° 0 mm 11 mps 746 mmHg 66%
    09:00 +13°C° 0 mm 11 mps 747 mmHg 67%
    10:00 +13°C° 0.2 mm 11 mps 747 mmHg 69%
    11:00 +13°C° 0.2 mm 11 mps 748 mmHg 71%
    12:00 +13°C° 0.2 mm 10 mps 749 mmHg 74%
    13:00 +13°C° 0.3 mm 9 mps 750 mmHg 73%
    14:00 +12°C° 0.3 mm 7 mps 750 mmHg 73%
    15:00 +11°C° 0.3 mm 6 mps 751 mmHg 73%
    16:00 +10°C° 0 mm 5 mps 752 mmHg 74%
    17:00 +9°C° 0 mm 5 mps 753 mmHg 76%
    18:00 +8°C° 0 mm 4 mps 754 mmHg 78%
    19:00 +8°C° 0 mm 4 mps 754 mmHg 79%
    20:00 +8°C° 0 mm 4 mps 754 mmHg 81%
    21:00 +8°C° 0 mm 4 mps 754 mmHg 82%
    22:00 +8°C° 0.1 mm 5 mps 754 mmHg 84%
    23:00 +9°C° 0.1 mm 6 mps 753 mmHg 86%

    Day after tomorrow, 24 November, Friday

    Time Temperature Precipitation Wind Pressure Humidity
    00:00 +10°C° 0.1 mm 7 mps 752 mmHg 88%
    01:00 +10°C° 0.4 mm 7 mps 752 mmHg 86%
    02:00 +11°C° 0.4 mm 8 mps 751 mmHg 84%
    03:00 +12°C° 0.4 mm 9 mps 751 mmHg 82%
    04:00 +11°C° 0.2 mm 9 mps 751 mmHg 82%
    05:00 +11°C° 0.2 mm 8 mps 751 mmHg 82%
    06:00 +11°C° 0.2 mm 7 mps 751 mmHg 83%
    07:00 +11°C° 0.1 mm 7 mps 752 mmHg 84%
    08:00 +11°C° 0.1 mm 7 mps 752 mmHg 85%
    09:00 +11°C° 0.1 mm 6 mps 753 mmHg 86%
    10:00 +12°C° 0.3 mm 5 mps 753 mmHg 86%
    11:00 +10°C° 0.3 mm 5 mps 753 mmHg 87%
    12:00 +11°C° 0.3 mm 4 mps 754 mmHg 87%
    13:00 +11°C° 0.4 mm 3 mps 754 mmHg 87%
    14:00 +11°C° 0.4 mm 3 mps 754 mmHg 88%
    15:00 +10°C° 0.4 mm 2 mps 754 mmHg 88%
    16:00 +10°C° 0.4 mm 2 mps 754 mmHg 89%
    17:00 +10°C° 0.4 mm 2 mps 754 mmHg 90%
    18:00 +9°C° 0.4 mm 2 mps 754 mmHg 91%
    19:00 +9°C° 1 mm 2 mps 754 mmHg 92%
    20:00 +9°C° 1 mm 2 mps 753 mmHg 93%
    21:00 +8°C° 1 mm 2 mps 753 mmHg 93%
    22:00 +8°C° 0.9 mm 2 mps 752 mmHg 94%
    23:00 +8°C° 0.9 mm 2 mps 752 mmHg 94%

    25 November, Saturday

    Time Temperature Precipitation Wind Pressure Humidity
    00:00 +8°C° 0.9 mm 2 mps 751 mmHg 95%
    01:00 +7°C° 1.4 mm 2 mps 751 mmHg 95%
    02:00 +7°C° 1.4 mm 3 mps 750 mmHg 95%
    03:00 +7°C° 1.4 mm 3 mps 750 mmHg 95%
    04:00 +7°C° 1 mm 3 mps 749 mmHg 94%
    05:00 +5°C° 1 mm 3 mps 749 mmHg 93%
    06:00 +5°C° 1 mm 3 mps 749 mmHg 92%
    07:00 +5°C° 0.8 mm 4 mps 750 mmHg 90%
    08:00 +5°C° 0.8 mm 4 mps 751 mmHg 89%
    09:00 +5°C° 0.8 mm 5 mps 751 mmHg 87%
    10:00 +5°C° 1.1 mm 5 mps 752 mmHg 83%
    11:00 +4°C° 1.1 mm 6 mps 753 mmHg 80%
    12:00 +4°C° 1.1 mm 7 mps 754 mmHg 76%
    13:00 +4°C° 0.1 mm 6 mps 755 mmHg 73%
    14:00 +4°C° 0.1 mm 6 mps 756 mmHg 70%
    15:00 +4°C° 0.1 mm 6 mps 757 mmHg 67%
    16:00 +3°C° 0 mm 6 mps 758 mmHg 69%
    17:00 +2°C° 0 mm 6 mps 758 mmHg 70%
    18:00 +2°C° 0 mm 5 mps 759 mmHg 72%
    19:00 +2°C° 0.1 mm 6 mps 759 mmHg 73%
    20:00 +2°C° 0.1 mm 6 mps 759 mmHg 74%
    21:00 +2°C° 0.1 mm 6 mps 760 mmHg 75%
    22:00 +1°C° 0.1 mm 6 mps 760 mmHg 75%
    23:00 +1°C° 0.1 mm 6 mps 760 mmHg 76%

    26 November, Sunday

    Time Temperature Precipitation Wind Pressure Humidity
    00:00 +1°C° 0.1 mm 6 mps 761 mmHg 77%
    01:00 +1°C° 0 mm 6 mps 760 mmHg 76%
    02:00 +1°C° 0 mm 6 mps 760 mmHg 76%
    03:00 +1°C° 0 mm 6 mps 760 mmHg 76%
    04:00 +1°C° 0 mm 6 mps 760 mmHg 76%
    05:00 +1°C° 0 mm 6 mps 760 mmHg 77%
    06:00 +1°C° 0 mm 6 mps 760 mmHg 77%
    07:00 +1°C° 0 mm 6 mps 761 mmHg 77%
    08:00 +2°C° 0 mm 6 mps 761 mmHg 77%
    09:00 +3°C° 0 mm 7 mps 761 mmHg 77%
    10:00 +3°C° 0.1 mm 7 mps 761 mmHg 76%
    11:00 +4°C° 0.1 mm 7 mps 761 mmHg 75%
    12:00 +5°C° 0.1 mm 7 mps 761 mmHg 74%
    13:00 +5°C° 0.2 mm 6 mps 761 mmHg 74%
    14:00 +4°C° 0.2 mm 6 mps 761 mmHg 75%
    15:00 +5°C° 0.2 mm 5 mps 762 mmHg 75%
    16:00 +5°C° 0.1 mm 5 mps 762 mmHg 77%
    17:00 +3°C° 0.1 mm 5 mps 762 mmHg 78%
    18:00 +3°C° 0.1 mm 4 mps 762 mmHg 80%
    19:00 +3°C° 0 mm 4 mps 763 mmHg 81%
    20:00 +3°C° 0 mm 4 mps 763 mmHg 82%
    21:00 +3°C° 0 mm 4 mps 763 mmHg 82%
    22:00 +2°C° 0 mm 5 mps 763 mmHg 82%
    23:00 +2°C° 0 mm 5 mps 763 mmHg 82%

    27 November, Monday

    Time Temperature Precipitation Wind Pressure Humidity
    00:00 +2°C° 0 mm 5 mps 763 mmHg 82%
    01:00 +2°C° 0.1 mm 5 mps 763 mmHg 82%
    02:00 +1°C° 0.1 mm 5 mps 764 mmHg 83%
    03:00 +1°C° 0.1 mm 5 mps 764 mmHg 83%
    04:00 +1°C° 0 mm 5 mps 764 mmHg 84%
    05:00 +1°C° 0 mm 5 mps 763 mmHg 85%
    06:00 +1°C° 0 mm 4 mps 763 mmHg 86%
    07:00 +1°C° 0 mm 5 mps 763 mmHg 85%
    08:00 +1°C° 0 mm 5 mps 763 mmHg 83%
    09:00 +2°C° 0 mm 5 mps 763 mmHg 82%
    10:00 +3°C° 0 mm 5 mps 762 mmHg 80%
    11:00 +4°C° 0 mm 6 mps 762 mmHg 77%
    12:00 +5°C° 0 mm 6 mps 761 mmHg 75%
    13:00 +5°C° 0 mm 6 mps 760 mmHg 76%
    14:00 +5°C° 0 mm 7 mps 759 mmHg 76%
    15:00 +4°C° 0 mm 7 mps 759 mmHg 77%
    16:00 +4°C° 0 mm 7 mps 758 mmHg 77%
    17:00 +4°C° 0 mm 7 mps 757 mmHg 77%
    18:00 +3°C° 0 mm 7 mps 756 mmHg 78%
    19:00 +3°C° 0 mm 7 mps 755 mmHg 77%
    20:00 +2°C° 0 mm 8 mps 754 mmHg 77%
    21:00 +2°C° 0 mm 8 mps 753 mmHg 76%
    22:00 +2°C° 0.1 mm 8 mps 752 mmHg 76%
    23:00 +2°C° 0.1 mm 9 mps 750 mmHg 75%
    Show more